MOLNIYA 3-24

Last updated on Tue Jun 27 2023 00:03:05 GMT+0000 (Coordinated Universal Time)

1 15738U 85040A 23176.74771137 -.00000217 00000+0 -70779-3 0 9991 2 15738 63.4162 11.0188 6899738 247.4516 29.4928 2.55631559313446

Satellite not in orbit

MOLNIYA 3-24